iso_date,epoch_date,Year,Hour,Min,DOY,POS_DOY,Lat,Lon,BP,Ts,Ta,has_bp,has_ts,has_ta,BuoyID,Buoy_Type,Buoy_Owner,Logistics,Hemisphere
2019-10-03T07:00:02Z,1570086003,2019,7,0,276.2917,276.2917,85.14555,133.97027,-999.00,-0.01,-999.0,no,yes,no,300234068519770,CTD,AWI,MOSAiC,North
2019-10-03T07:09:59Z,1570086599,2019,7,10,276.2986,276.2986,85.14529,133.96597,-999.00,-5.13,-999.0,no,yes,no,300234068519770,CTD,AWI,MOSAiC,North
2019-10-03T07:20:03Z,1570087204,2019,7,20,276.3056,276.3056,85.14503,133.96001,-999.00,-5.0,-999.0,no,yes,no,300234068519770,CTD,AWI,MOSAiC,North
2019-10-03T07:30:00Z,1570087800,2019,7,30,276.3125,276.3125,85.14473,133.9554,-999.00,-5.09,-999.0,no,yes,no,300234068519770,CTD,AWI,MOSAiC,North
2019-10-11T02:19:58Z,1570760398,2019,2,20,284.0972,284.0972,84.74073,135.83458,-999.00,-0.01,-999.0,no,yes,no,300234068519770,CTD,AWI,MOSAiC,North
2019-10-11T02:30:02Z,1570761003,2019,2,30,284.1042,284.1042,84.74003,135.83765,-999.00,-10.87,-999.0,no,yes,no,300234068519770,CTD,AWI,MOSAiC,North
2019-10-11T02:39:59Z,1570761599,2019,2,40,284.1111,284.1111,84.73932,135.84042,-999.00,-9.42,-999.0,no,yes,no,300234068519770,CTD,AWI,MOSAiC,North
2019-10-11T02:50:03Z,1570762204,2019,2,50,284.1181,284.1181,84.73867,135.843,-999.00,-8.34,-999.0,no,yes,no,300234068519770,CTD,AWI,MOSAiC,North
2019-10-11T03:00:00Z,1570762800,2019,3,0,284.125,284.125,84.73806,135.84539,-999.00,-7.87,-999.0,no,yes,no,300234068519770,CTD,AWI,MOSAiC,North
2019-10-11T03:09:56Z,1570763396,2019,3,10,284.1319,284.1319,84.73746,135.84788,-999.00,-7.97,-999.0,no,yes,no,300234068519770,CTD,AWI,MOSAiC,North
2019-10-11T03:20:00Z,1570764001,2019,3,20,284.1389,284.1389,84.73688,135.85047,-999.00,-8.2,-999.0,no,yes,no,300234068519770,CTD,AWI,MOSAiC,North
2019-10-11T03:29:57Z,1570764597,2019,3,30,284.1458,284.1458,84.7363,135.85313,-999.00,-8.51,-999.0,no,yes,no,300234068519770,CTD,AWI,MOSAiC,North
2019-10-11T03:40:01Z,1570765202,2019,3,40,284.1528,284.1528,84.73574,135.85594,-999.00,-8.45,-999.0,no,yes,no,300234068519770,CTD,AWI,MOSAiC,North
2019-10-11T03:49:58Z,1570765798,2019,3,50,284.1597,284.1597,84.7352,135.85868,-999.00,-8.89,-999.0,no,yes,no,300234068519770,CTD,AWI,MOSAiC,North
2019-10-11T04:00:02Z,1570766403,2019,4,0,284.1667,284.1667,84.73466,135.86153,-999.00,-9.22,-999.0,no,yes,no,300234068519770,CTD,AWI,MOSAiC,North
2019-10-11T04:09:59Z,1570766999,2019,4,10,284.1736,284.1736,84.73415,135.86447,-999.00,-9.6,-999.0,no,yes,no,300234068519770,CTD,AWI,MOSAiC,North
2019-10-11T04:20:03Z,1570767604,2019,4,20,284.1806,284.1806,84.73366,135.86749,-999.00,-9.86,-999.0,no,yes,no,300234068519770,CTD,AWI,MOSAiC,North
2019-10-11T04:30:00Z,1570768200,2019,4,30,284.1875,284.1875,84.73321,135.87044,-999.00,-10.14,-999.0,no,yes,no,300234068519770,CTD,AWI,MOSAiC,North
2019-10-11T04:39:56Z,1570768796,2019,4,40,284.1944,284.1944,84.73278,135.8734,-999.00,-10.51,-999.0,no,yes,no,300234068519770,CTD,AWI,MOSAiC,North
2019-10-11T04:50:00Z,1570769401,2019,4,50,284.2014,284.2014,84.73237,135.87652,-999.00,-10.76,-999.0,no,yes,no,300234068519770,CTD,AWI,MOSAiC,North
2019-10-11T04:59:57Z,1570769997,2019,5,0,284.2083,284.2083,84.73198,135.87975,-999.00,-11.06,-999.0,no,yes,no,300234068519770,CTD,AWI,MOSAiC,North
2019-10-11T05:10:01Z,1570770602,2019,5,10,284.2153,284.2153,84.73161,135.88333,-999.00,-11.34,-999.0,no,yes,no,300234068519770,CTD,AWI,MOSAiC,North
2019-10-11T05:19:58Z,1570771198,2019,5,20,284.2222,284.2222,84.73122,135.88704,-999.00,-11.57,-999.0,no,yes,no,300234068519770,CTD,AWI,MOSAiC,North
2019-10-11T05:30:02Z,1570771803,2019,5,30,284.2292,284.2292,84.73084,135.89108,-999.00,-11.61,-999.0,no,yes,no,300234068519770,CTD,AWI,MOSAiC,North
2019-10-11T05:39:59Z,1570772399,2019,5,40,284.2361,284.2361,84.73039,135.89492,-999.00,-11.9,-999.0,no,yes,no,300234068519770,CTD,AWI,MOSAiC,North
2019-10-11T05:50:03Z,1570773004,2019,5,50,284.2431,284.2431,84.72986,135.89938,-999.00,-12.18,-999.0,no,yes,no,300234068519770,CTD,AWI,MOSAiC,North
2019-10-11T06:00:00Z,1570773600,2019,6,0,284.25,284.25,84.72928,135.90393,-999.00,-12.15,-999.0,no,yes,no,300234068519770,CTD,AWI,MOSAiC,North
2019-10-11T06:09:56Z,1570774196,2019,6,10,284.2569,284.2569,84.72864,135.90889,-999.00,-12.08,-999.0,no,yes,no,300234068519770,CTD,AWI,MOSAiC,North
2019-10-11T06:20:00Z,1570774801,2019,6,20,284.2639,284.2639,84.72796,135.91427,-999.00,-11.59,-999.0,no,yes,no,300234068519770,CTD,AWI,MOSAiC,North
2019-10-11T06:29:57Z,1570775397,2019,6,30,284.2708,284.2708,84.72727,135.92003,-999.00,-11.33,-999.0,no,yes,no,300234068519770,CTD,AWI,MOSAiC,North
2019-10-11T06:40:01Z,1570776002,2019,6,40,284.2778,284.2778,84.72651,135.92595,-999.00,-11.44,-999.0,no,yes,no,300234068519770,CTD,AWI,MOSAiC,North
2019-10-11T06:49:58Z,1570776598,2019,6,50,284.2847,284.2847,84.7257,135.93189,-999.00,-11.27,-999.0,no,yes,no,300234068519770,CTD,AWI,MOSAiC,North
2019-10-11T07:00:02Z,1570777203,2019,7,0,284.2917,284.2917,84.72486,135.93782,-999.00,-11.29,-999.0,no,yes,no,300234068519770,CTD,AWI,MOSAiC,North
2019-10-11T07:09:59Z,1570777799,2019,7,10,284.2986,284.2986,84.72402,135.94371,-999.00,-11.36,-999.0,no,yes,no,300234068519770,CTD,AWI,MOSAiC,North
2019-10-11T07:20:03Z,1570778404,2019,7,20,284.3056,284.3056,84.72317,135.94939,-999.00,-11.29,-999.0,no,yes,no,300234068519770,CTD,AWI,MOSAiC,North
2019-10-11T07:30:00Z,1570779000,2019,7,30,284.3125,284.3125,84.72229,135.9547,-999.00,-10.94,-999.0,no,yes,no,300234068519770,CTD,AWI,MOSAiC,North
2019-10-11T07:39:56Z,1570779596,2019,7,40,284.3194,284.3194,84.72139,135.95973,-999.00,-10.72,-999.0,no,yes,no,300234068519770,CTD,AWI,MOSAiC,North
2019-10-11T07:50:00Z,1570780201,2019,7,50,284.3264,284.3264,84.7205,135.96451,-999.00,-10.5,-999.0,no,yes,no,300234068519770,CTD,AWI,MOSAiC,North
2019-10-11T07:59:57Z,1570780797,2019,8,0,284.3333,284.3333,84.71958,135.96912,-999.00,-10.15,-999.0,no,yes,no,300234068519770,CTD,AWI,MOSAiC,North
2019-10-11T08:10:01Z,1570781402,2019,8,10,284.3403,284.3403,84.71877,135.97307,-999.00,-9.6,-999.0,no,yes,no,300234068519770,CTD,AWI,MOSAiC,North
2019-10-11T08:19:58Z,1570781998,2019,8,20,284.3472,284.3472,84.71792,135.97687,-999.00,-9.05,-999.0,no,yes,no,300234068519770,CTD,AWI,MOSAiC,North
2019-10-11T08:30:02Z,1570782603,2019,8,30,284.3542,284.3542,84.71706,135.98029,-999.00,-8.76,-999.0,no,yes,no,300234068519770,CTD,AWI,MOSAiC,North
2019-10-11T08:39:59Z,1570783199,2019,8,40,284.3611,284.3611,84.7162,135.98342,-999.00,-8.67,-999.0,no,yes,no,300234068519770,CTD,AWI,MOSAiC,North
2019-10-11T08:50:03Z,1570783804,2019,8,50,284.3681,284.3681,84.71534,135.9862,-999.00,-8.74,-999.0,no,yes,no,300234068519770,CTD,AWI,MOSAiC,North
2019-10-11T09:00:00Z,1570784400,2019,9,0,284.375,284.375,84.71451,135.98866,-999.00,-8.8,-999.0,no,yes,no,300234068519770,CTD,AWI,MOSAiC,North
2019-10-11T09:09:56Z,1570784996,2019,9,10,284.3819,284.3819,84.71369,135.99091,-999.00,-8.76,-999.0,no,yes,no,300234068519770,CTD,AWI,MOSAiC,North
2019-10-11T09:20:00Z,1570785601,2019,9,20,284.3889,284.3889,84.71289,135.99279,-999.00,-8.73,-999.0,no,yes,no,300234068519770,CTD,AWI,MOSAiC,North
2019-10-11T09:29:57Z,1570786197,2019,9,30,284.3958,284.3958,84.71212,135.99451,-999.00,-8.69,-999.0,no,yes,no,300234068519770,CTD,AWI,MOSAiC,North
2019-10-11T09:40:01Z,1570786802,2019,9,40,284.4028,284.4028,84.71136,135.99613,-999.00,-8.8,-999.0,no,yes,no,300234068519770,CTD,AWI,MOSAiC,North
2019-10-11T09:49:58Z,1570787398,2019,9,50,284.4097,284.4097,84.71061,135.99757,-999.00,-8.52,-999.0,no,yes,no,300234068519770,CTD,AWI,MOSAiC,North
2019-10-11T10:00:02Z,1570788003,2019,10,0,284.4167,284.4167,84.70989,135.99877,-999.00,-8.48,-999.0,no,yes,no,300234068519770,CTD,AWI,MOSAiC,North
2019-10-11T10:09:59Z,1570788599,2019,10,10,284.4236,284.4236,84.70919,135.99986,-999.00,-8.51,-999.0,no,yes,no,300234068519770,CTD,AWI,MOSAiC,North
2019-10-11T10:20:03Z,1570789204,2019,10,20,284.4306,284.4306,84.70851,136.00077,-999.00,-8.44,-999.0,no,yes,no,300234068519770,CTD,AWI,MOSAiC,North
2019-10-11T10:30:00Z,1570789800,2019,10,30,284.4375,284.4375,84.70787,136.00167,-999.00,-8.46,-999.0,no,yes,no,300234068519770,CTD,AWI,MOSAiC,North
2019-10-11T10:39:56Z,1570790396,2019,10,40,284.4444,284.4444,84.70724,136.00247,-999.00,-8.61,-999.0,no,yes,no,300234068519770,CTD,AWI,MOSAiC,North
2019-10-11T10:50:00Z,1570791001,2019,10,50,284.4514,284.4514,84.70664,136.00316,-999.00,-8.73,-999.0,no,yes,no,300234068519770,CTD,AWI,MOSAiC,North
2019-10-11T10:59:57Z,1570791597,2019,11,0,284.4583,284.4583,84.70605,136.00377,-999.00,-8.93,-999.0,no,yes,no,300234068519770,CTD,AWI,MOSAiC,North
2019-10-11T11:10:01Z,1570792202,2019,11,10,284.4653,284.4653,84.70546,136.00421,-999.00,-8.93,-999.0,no,yes,no,300234068519770,CTD,AWI,MOSAiC,North
2019-10-11T11:19:58Z,1570792798,2019,11,20,284.4722,284.4722,84.70493,136.00471,-999.00,-8.8,-999.0,no,yes,no,300234068519770,CTD,AWI,MOSAiC,North
2019-10-11T11:30:02Z,1570793403,2019,11,30,284.4792,284.4792,84.70441,136.00507,-999.00,-8.79,-999.0,no,yes,no,300234068519770,CTD,AWI,MOSAiC,North
2019-10-11T11:39:59Z,1570793999,2019,11,40,284.4861,284.4861,84.70389,136.00548,-999.00,-8.91,-999.0,no,yes,no,300234068519770,CTD,AWI,MOSAiC,North
2019-10-11T11:50:03Z,1570794604,2019,11,50,284.4931,284.4931,84.70339,136.00601,-999.00,-9.12,-999.0,no,yes,no,300234068519770,CTD,AWI,MOSAiC,North
2019-10-11T12:00:00Z,1570795200,2019,12,0,284.5,284.5,84.70292,136.00654,-999.00,-9.1,-999.0,no,yes,no,300234068519770,CTD,AWI,MOSAiC,North
2019-10-11T12:09:56Z,1570795796,2019,12,10,284.5069,284.5069,84.70246,136.00721,-999.00,-9.12,-999.0,no,yes,no,300234068519770,CTD,AWI,MOSAiC,North
2019-10-11T12:20:00Z,1570796401,2019,12,20,284.5139,284.5139,84.70201,136.00794,-999.00,-9.05,-999.0,no,yes,no,300234068519770,CTD,AWI,MOSAiC,North
2019-10-11T12:29:57Z,1570796997,2019,12,30,284.5208,284.5208,84.70159,136.00873,-999.00,-8.82,-999.0,no,yes,no,300234068519770,CTD,AWI,MOSAiC,North
2019-10-11T12:40:01Z,1570797602,2019,12,40,284.5278,284.5278,84.70118,136.00972,-999.00,-8.72,-999.0,no,yes,no,300234068519770,CTD,AWI,MOSAiC,North
2019-10-11T12:49:58Z,1570798198,2019,12,50,284.5347,284.5347,84.7008,136.01081,-999.00,-8.65,-999.0,no,yes,no,300234068519770,CTD,AWI,MOSAiC,North
2019-10-11T13:00:02Z,1570798803,2019,13,0,284.5417,284.5417,84.70044,136.01193,-999.00,-8.69,-999.0,no,yes,no,300234068519770,CTD,AWI,MOSAiC,North
2019-10-11T13:09:59Z,1570799399,2019,13,10,284.5486,284.5486,84.70009,136.01313,-999.00,-8.83,-999.0,no,yes,no,300234068519770,CTD,AWI,MOSAiC,North
2019-10-11T13:20:03Z,1570800004,2019,13,20,284.5556,284.5556,84.69977,136.01467,-999.00,-8.99,-999.0,no,yes,no,300234068519770,CTD,AWI,MOSAiC,North
2019-10-11T13:30:00Z,1570800600,2019,13,30,284.5625,284.5625,84.69946,136.01644,-999.00,-9.16,-999.0,no,yes,no,300234068519770,CTD,AWI,MOSAiC,North
2019-10-11T13:39:56Z,1570801196,2019,13,40,284.5694,284.5694,84.69916,136.01834,-999.00,-9.26,-999.0,no,yes,no,300234068519770,CTD,AWI,MOSAiC,North
2019-10-11T13:50:00Z,1570801801,2019,13,50,284.5764,284.5764,84.69886,136.02051,-999.00,-9.46,-999.0,no,yes,no,300234068519770,CTD,AWI,MOSAiC,North
2019-10-11T13:59:57Z,1570802397,2019,14,0,284.5833,284.5833,84.69855,136.02296,-999.00,-9.25,-999.0,no,yes,no,300234068519770,CTD,AWI,MOSAiC,North
2019-10-11T14:10:01Z,1570803002,2019,14,10,284.5903,284.5903,84.69829,136.02536,-999.00,-9.31,-999.0,no,yes,no,300234068519770,CTD,AWI,MOSAiC,North
2019-10-11T14:19:58Z,1570803598,2019,14,20,284.5972,284.5972,84.69803,136.02814,-999.00,-9.3,-999.0,no,yes,no,300234068519770,CTD,AWI,MOSAiC,North
2019-10-11T14:30:02Z,1570804203,2019,14,30,284.6042,284.6042,84.69777,136.03109,-999.00,-9.1,-999.0,no,yes,no,300234068519770,CTD,AWI,MOSAiC,North
2019-10-11T14:39:59Z,1570804799,2019,14,40,284.6111,284.6111,84.69752,136.03429,-999.00,-8.94,-999.0,no,yes,no,300234068519770,CTD,AWI,MOSAiC,North
2019-10-11T14:50:03Z,1570805404,2019,14,50,284.6181,284.6181,84.69727,136.03763,-999.00,-8.85,-999.0,no,yes,no,300234068519770,CTD,AWI,MOSAiC,North
2019-10-11T15:00:00Z,1570806000,2019,15,0,284.625,284.625,84.69704,136.04114,-999.00,-8.65,-999.0,no,yes,no,300234068519770,CTD,AWI,MOSAiC,North
2019-10-11T15:09:56Z,1570806596,2019,15,10,284.6319,284.6319,84.69682,136.04473,-999.00,-8.58,-999.0,no,yes,no,300234068519770,CTD,AWI,MOSAiC,North
2019-10-11T15:20:00Z,1570807201,2019,15,20,284.6389,284.6389,84.69661,136.04837,-999.00,-8.6,-999.0,no,yes,no,300234068519770,CTD,AWI,MOSAiC,North
2019-10-11T15:29:57Z,1570807797,2019,15,30,284.6458,284.6458,84.69641,136.05219,-999.00,-8.62,-999.0,no,yes,no,300234068519770,CTD,AWI,MOSAiC,North
2019-10-11T15:40:01Z,1570808402,2019,15,40,284.6528,284.6528,84.69622,136.05612,-999.00,-8.74,-999.0,no,yes,no,300234068519770,CTD,AWI,MOSAiC,North
2019-10-11T15:49:58Z,1570808998,2019,15,50,284.6597,284.6597,84.69604,136.05996,-999.00,-8.89,-999.0,no,yes,no,300234068519770,CTD,AWI,MOSAiC,North
2019-10-11T16:00:02Z,1570809603,2019,16,0,284.6667,284.6667,84.69588,136.06387,-999.00,-9.02,-999.0,no,yes,no,300234068519770,CTD,AWI,MOSAiC,North
2019-10-11T16:09:59Z,1570810199,2019,16,10,284.6736,284.6736,84.69573,136.06788,-999.00,-9.21,-999.0,no,yes,no,300234068519770,CTD,AWI,MOSAiC,North
2019-10-11T16:20:03Z,1570810804,2019,16,20,284.6806,284.6806,84.69558,136.07192,-999.00,-9.51,-999.0,no,yes,no,300234068519770,CTD,AWI,MOSAiC,North
2019-10-11T16:30:00Z,1570811400,2019,16,30,284.6875,284.6875,84.69543,136.07616,-999.00,-9.38,-999.0,no,yes,no,300234068519770,CTD,AWI,MOSAiC,North
2019-10-11T16:39:56Z,1570811996,2019,16,40,284.6944,284.6944,84.69526,136.08065,-999.00,-9.48,-999.0,no,yes,no,300234068519770,CTD,AWI,MOSAiC,North
2019-10-11T16:50:00Z,1570812601,2019,16,50,284.7014,284.7014,84.69508,136.08518,-999.00,-9.67,-999.0,no,yes,no,300234068519770,CTD,AWI,MOSAiC,North
2019-10-11T16:59:57Z,1570813197,2019,17,0,284.7083,284.7083,84.69489,136.08991,-999.00,-10.02,-999.0,no,yes,no,300234068519770,CTD,AWI,MOSAiC,North
2019-10-11T17:10:01Z,1570813802,2019,17,10,284.7153,284.7153,84.69468,136.09478,-999.00,-10.45,-999.0,no,yes,no,300234068519770,CTD,AWI,MOSAiC,North
2019-10-11T17:20:58Z,1570814459,2019,17,21,284.7229,284.7229,84.69447,136.09979,-999.00,-10.48,-999.0,no,yes,no,300234068519770,CTD,AWI,MOSAiC,North
2019-10-11T17:30:02Z,1570815003,2019,17,30,284.7292,284.7292,84.69424,136.10433,-999.00,-10.48,-999.0,no,yes,no,300234068519770,CTD,AWI,MOSAiC,North
2019-10-11T17:39:59Z,1570815599,2019,17,40,284.7361,284.7361,84.69399,136.10919,-999.00,-10.32,-999.0,no,yes,no,300234068519770,CTD,AWI,MOSAiC,North
2019-10-11T17:50:03Z,1570816204,2019,17,50,284.7431,284.7431,84.69374,136.11387,-999.00,-10.35,-999.0,no,yes,no,300234068519770,CTD,AWI,MOSAiC,North
2019-10-11T18:00:00Z,1570816800,2019,18,0,284.75,284.75,84.69349,136.11839,-999.00,-10.4,-999.0,no,yes,no,300234068519770,CTD,AWI,MOSAiC,North
2019-10-11T18:09:56Z,1570817396,2019,18,10,284.7569,284.7569,84.69324,136.12286,-999.00,-10.72,-999.0,no,yes,no,300234068519770,CTD,AWI,MOSAiC,North
2019-10-11T18:20:00Z,1570818001,2019,18,20,284.7639,284.7639,84.69299,136.12714,-999.00,-11.03,-999.0,no,yes,no,300234068519770,CTD,AWI,MOSAiC,North
2019-10-11T18:29:57Z,1570818597,2019,18,30,284.7708,284.7708,84.69273,136.13134,-999.00,-11.26,-999.0,no,yes,no,300234068519770,CTD,AWI,MOSAiC,North
2019-10-11T18:40:01Z,1570819202,2019,18,40,284.7778,284.7778,84.69247,136.13537,-999.00,-11.38,-999.0,no,yes,no,300234068519770,CTD,AWI,MOSAiC,North
2019-10-11T18:49:58Z,1570819798,2019,18,50,284.7847,284.7847,84.69219,136.13921,-999.00,-11.16,-999.0,no,yes,no,300234068519770,CTD,AWI,MOSAiC,North
2019-10-11T19:00:02Z,1570820403,2019,19,0,284.7917,284.7917,84.69192,136.14292,-999.00,-11.22,-999.0,no,yes,no,300234068519770,CTD,AWI,MOSAiC,North
2019-10-11T19:09:59Z,1570820999,2019,19,10,284.7986,284.7986,84.69164,136.14646,-999.00,-11.34,-999.0,no,yes,no,300234068519770,CTD,AWI,MOSAiC,North
2019-10-11T19:20:03Z,1570821604,2019,19,20,284.8056,284.8056,84.69138,136.14989,-999.00,-11.19,-999.0,no,yes,no,300234068519770,CTD,AWI,MOSAiC,North
2019-10-11T19:30:00Z,1570822200,2019,19,30,284.8125,284.8125,84.69111,136.15306,-999.00,-10.97,-999.0,no,yes,no,300234068519770,CTD,AWI,MOSAiC,North
2019-10-11T19:39:56Z,1570822796,2019,19,40,284.8194,284.8194,84.69083,136.15612,-999.00,-10.47,-999.0,no,yes,no,300234068519770,CTD,AWI,MOSAiC,North
2019-10-11T19:50:00Z,1570823401,2019,19,50,284.8264,284.8264,84.69056,136.15906,-999.00,-10.33,-999.0,no,yes,no,300234068519770,CTD,AWI,MOSAiC,North
2019-10-11T20:00:57Z,1570824058,2019,20,1,284.834,284.834,84.69029,136.16189,-999.00,-10.4,-999.0,no,yes,no,300234068519770,CTD,AWI,MOSAiC,North
2019-10-11T20:10:01Z,1570824602,2019,20,10,284.8403,284.8403,84.69006,136.16439,-999.00,-10.27,-999.0,no,yes,no,300234068519770,CTD,AWI,MOSAiC,North
2019-10-11T20:19:58Z,1570825198,2019,20,20,284.8472,284.8472,84.68984,136.16691,-999.00,-10.16,-999.0,no,yes,no,300234068519770,CTD,AWI,MOSAiC,North
2019-10-11T20:30:02Z,1570825803,2019,20,30,284.8542,284.8542,84.68962,136.16917,-999.00,-9.82,-999.0,no,yes,no,300234068519770,CTD,AWI,MOSAiC,North
2019-10-11T20:39:59Z,1570826399,2019,20,40,284.8611,284.8611,84.68939,136.17112,-999.00,-9.71,-999.0,no,yes,no,300234068519770,CTD,AWI,MOSAiC,North
2019-10-11T20:50:03Z,1570827004,2019,20,50,284.8681,284.8681,84.68919,136.17297,-999.00,-9.74,-999.0,no,yes,no,300234068519770,CTD,AWI,MOSAiC,North
2019-10-11T21:00:00Z,1570827600,2019,21,0,284.875,284.875,84.68899,136.1746,-999.00,-10.2,-999.0,no,yes,no,300234068519770,CTD,AWI,MOSAiC,North
2019-10-11T21:09:56Z,1570828196,2019,21,10,284.8819,284.8819,84.68882,136.17601,-999.00,-10.56,-999.0,no,yes,no,300234068519770,CTD,AWI,MOSAiC,North
2019-10-11T21:20:00Z,1570828801,2019,21,20,284.8889,284.8889,84.68866,136.17716,-999.00,-10.59,-999.0,no,yes,no,300234068519770,CTD,AWI,MOSAiC,North
2019-10-11T21:29:57Z,1570829397,2019,21,30,284.8958,284.8958,84.68854,136.17798,-999.00,-10.54,-999.0,no,yes,no,300234068519770,CTD,AWI,MOSAiC,North
2019-10-11T21:40:01Z,1570830002,2019,21,40,284.9028,284.9028,84.68844,136.17857,-999.00,-10.34,-999.0,no,yes,no,300234068519770,CTD,AWI,MOSAiC,North
2019-10-11T21:49:58Z,1570830598,2019,21,50,284.9097,284.9097,84.68836,136.17911,-999.00,-10.37,-999.0,no,yes,no,300234068519770,CTD,AWI,MOSAiC,North
2019-10-11T22:00:02Z,1570831203,2019,22,0,284.9167,284.9167,84.6883,136.17944,-999.00,-10.18,-999.0,no,yes,no,300234068519770,CTD,AWI,MOSAiC,North
2019-10-11T22:09:59Z,1570831799,2019,22,10,284.9236,284.9236,84.68825,136.17941,-999.00,-10.31,-999.0,no,yes,no,300234068519770,CTD,AWI,MOSAiC,North
2019-10-11T22:20:03Z,1570832404,2019,22,20,284.9306,284.9306,84.68823,136.17927,-999.00,-10.28,-999.0,no,yes,no,300234068519770,CTD,AWI,MOSAiC,North
2019-10-11T22:30:00Z,1570833000,2019,22,30,284.9375,284.9375,84.68825,136.1789,-999.00,-10.08,-999.0,no,yes,no,300234068519770,CTD,AWI,MOSAiC,North
2019-10-11T22:39:56Z,1570833596,2019,22,40,284.9444,284.9444,84.6883,136.17831,-999.00,-9.97,-999.0,no,yes,no,300234068519770,CTD,AWI,MOSAiC,North
2019-10-11T22:50:00Z,1570834201,2019,22,50,284.9514,284.9514,84.68839,136.17756,-999.00,-9.66,-999.0,no,yes,no,300234068519770,CTD,AWI,MOSAiC,North
2019-10-11T22:59:57Z,1570834797,2019,23,0,284.9583,284.9583,84.68847,136.17639,-999.00,-9.41,-999.0,no,yes,no,300234068519770,CTD,AWI,MOSAiC,North
2019-10-11T23:10:01Z,1570835402,2019,23,10,284.9653,284.9653,84.68868,136.17548,-999.00,-8.99,-999.0,no,yes,no,300234068519770,CTD,AWI,MOSAiC,North
2019-10-11T23:20:58Z,1570836059,2019,23,21,284.9729,284.9729,84.6889,136.17426,-999.00,-8.76,-999.0,no,yes,no,300234068519770,CTD,AWI,MOSAiC,North
2019-10-11T23:30:02Z,1570836603,2019,23,30,284.9792,284.9792,84.68913,136.17324,-999.00,-8.52,-999.0,no,yes,no,300234068519770,CTD,AWI,MOSAiC,North
2019-10-11T23:39:59Z,1570837199,2019,23,40,284.9861,284.9861,84.6894,136.17193,-999.00,-8.33,-999.0,no,yes,no,300234068519770,CTD,AWI,MOSAiC,North
2019-10-11T23:50:03Z,1570837804,2019,23,50,284.9931,284.9931,84.6897,136.17057,-999.00,-8.21,-999.0,no,yes,no,300234068519770,CTD,AWI,MOSAiC,North
2019-10-12T00:00:00Z,1570838400,2019,0,0,285.0,285.0,84.69002,136.16938,-999.00,-8.06,-999.0,no,yes,no,300234068519770,CTD,AWI,MOSAiC,North
2019-10-12T00:09:56Z,1570838996,2019,0,10,285.0069,285.0069,84.69038,136.16814,-999.00,-7.99,-999.0,no,yes,no,300234068519770,CTD,AWI,MOSAiC,North
2019-10-12T00:20:00Z,1570839601,2019,0,20,285.0139,285.0139,84.69076,136.16702,-999.00,-7.9,-999.0,no,yes,no,300234068519770,CTD,AWI,MOSAiC,North
2019-10-12T00:29:57Z,1570840197,2019,0,30,285.0208,285.0208,84.6912,136.16609,-999.00,-7.89,-999.0,no,yes,no,300234068519770,CTD,AWI,MOSAiC,North
2019-10-12T00:40:01Z,1570840802,2019,0,40,285.0278,285.0278,84.69166,136.16546,-999.00,-7.87,-999.0,no,yes,no,300234068519770,CTD,AWI,MOSAiC,North
2019-10-12T00:49:58Z,1570841398,2019,0,50,285.0347,285.0347,84.69216,136.16504,-999.00,-7.97,-999.0,no,yes,no,300234068519770,CTD,AWI,MOSAiC,North
2019-10-12T01:00:02Z,1570842003,2019,1,0,285.0417,285.0417,84.69265,136.1644,-999.00,-8.09,-999.0,no,yes,no,300234068519770,CTD,AWI,MOSAiC,North
2019-10-12T01:09:59Z,1570842599,2019,1,10,285.0486,285.0486,84.69318,136.16405,-999.00,-8.18,-999.0,no,yes,no,300234068519770,CTD,AWI,MOSAiC,North
2019-10-12T01:20:03Z,1570843204,2019,1,20,285.0556,285.0556,84.69376,136.1639,-999.00,-8.31,-999.0,no,yes,no,300234068519770,CTD,AWI,MOSAiC,North
2019-10-12T01:30:00Z,1570843800,2019,1,30,285.0625,285.0625,84.69437,136.16396,-999.00,-8.26,-999.0,no,yes,no,300234068519770,CTD,AWI,MOSAiC,North
2019-10-12T01:39:56Z,1570844396,2019,1,40,285.0694,285.0694,84.69499,136.16406,-999.00,-8.15,-999.0,no,yes,no,300234068519770,CTD,AWI,MOSAiC,North
2019-10-12T01:50:00Z,1570845001,2019,1,50,285.0764,285.0764,84.69563,136.16458,-999.00,-8.05,-999.0,no,yes,no,300234068519770,CTD,AWI,MOSAiC,North
2019-10-12T01:59:57Z,1570845597,2019,2,0,285.0833,285.0833,84.69633,136.16517,-999.00,-7.99,-999.0,no,yes,no,300234068519770,CTD,AWI,MOSAiC,North
2019-10-12T02:10:01Z,1570846202,2019,2,10,285.0903,285.0903,84.69697,136.16593,-999.00,-7.96,-999.0,no,yes,no,300234068519770,CTD,AWI,MOSAiC,North
2019-10-12T02:19:58Z,1570846798,2019,2,20,285.0972,285.0972,84.69768,136.16687,-999.00,-7.9,-999.0,no,yes,no,300234068519770,CTD,AWI,MOSAiC,North
2019-10-12T02:30:02Z,1570847403,2019,2,30,285.1042,285.1042,84.69837,136.16774,-999.00,-7.82,-999.0,no,yes,no,300234068519770,CTD,AWI,MOSAiC,North
2019-10-12T02:39:59Z,1570847999,2019,2,40,285.1111,285.1111,84.69908,136.16861,-999.00,-7.73,-999.0,no,yes,no,300234068519770,CTD,AWI,MOSAiC,North
2019-10-12T02:50:03Z,1570848604,2019,2,50,285.1181,285.1181,84.69977,136.16944,-999.00,-7.62,-999.0,no,yes,no,300234068519770,CTD,AWI,MOSAiC,North
2019-10-12T03:00:00Z,1570849200,2019,3,0,285.125,285.125,84.70047,136.17021,-999.00,-7.52,-999.0,no,yes,no,300234068519770,CTD,AWI,MOSAiC,North
2019-10-12T03:09:56Z,1570849796,2019,3,10,285.1319,285.1319,84.70117,136.17089,-999.00,-7.44,-999.0,no,yes,no,300234068519770,CTD,AWI,MOSAiC,North
2019-10-12T03:20:00Z,1570850401,2019,3,20,285.1389,285.1389,84.70186,136.17158,-999.00,-7.43,-999.0,no,yes,no,300234068519770,CTD,AWI,MOSAiC,North
2019-10-12T03:29:57Z,1570850997,2019,3,30,285.1458,285.1458,84.70254,136.17239,-999.00,-7.42,-999.0,no,yes,no,300234068519770,CTD,AWI,MOSAiC,North
2019-10-12T03:40:01Z,1570851602,2019,3,40,285.1528,285.1528,84.70322,136.17324,-999.00,-7.41,-999.0,no,yes,no,300234068519770,CTD,AWI,MOSAiC,North
2019-10-12T03:49:58Z,1570852198,2019,3,50,285.1597,285.1597,84.70389,136.17394,-999.00,-7.36,-999.0,no,yes,no,300234068519770,CTD,AWI,MOSAiC,North
2019-10-12T04:00:02Z,1570852803,2019,4,0,285.1667,285.1667,84.70454,136.17437,-999.00,-7.2,-999.0,no,yes,no,300234068519770,CTD,AWI,MOSAiC,North
2019-10-12T04:09:59Z,1570853399,2019,4,10,285.1736,285.1736,84.70521,136.17463,-999.00,-7.12,-999.0,no,yes,no,300234068519770,CTD,AWI,MOSAiC,North
2019-10-12T04:20:03Z,1570854004,2019,4,20,285.1806,285.1806,84.70585,136.1749,-999.00,-6.99,-999.0,no,yes,no,300234068519770,CTD,AWI,MOSAiC,North
2019-10-12T04:30:00Z,1570854600,2019,4,30,285.1875,285.1875,84.70646,136.17507,-999.00,-6.89,-999.0,no,yes,no,300234068519770,CTD,AWI,MOSAiC,North